Regional Weather Roundup
Issued by NWS Mt. Holly, NJ

Home | Current Version | Previous Version | Text Only | Print | Product List | Glossary On
Versions: 1 2 3 4 5 6 7 8 9 10 11 12 13 14 15 16 17 18 19 20 21 22 23 24 25 26 27 28 29 30 31 32 33 34 35 36 37 38 39 40 41 42 43 44 45 46 47 48 49 50
000
ASUS41 KPHI 172312
RWRPHI

REGIONAL WEATHER ROUNDUP
NATIONAL WEATHER SERVICE MOUNT HOLLY NJ
700 PM EDT THU AUG 17 2017

NOTE:  "FAIR" INDICATES FEW OR NO CLOUDS BELOW 12,000 FEET WITH NO
SIGNIFICANT WEATHER AND/OR OBSTRUCTIONS TO VISIBILITY.

 * = STATION DOES NOT REPORT PRECIPITATION (E.G. RAIN, SNOW, ETC.)
        OR FOG.

NJZ015>026-180000-
SOUTHERN NEW JERSEY

CITY           SKY/WX    TMP DP  RH WIND       PRES   REMARKS
POMONA         MOCLDY    82  71  69 VRB6      29.98R
WILDWOOD*      MOCLDY    79  74  84 S13       29.98S
MILLVILLE      LGT RAIN  79  75  87 VRB3      29.97R
WRIGHTSTOWN    CLEAR     81  69  67 SE6       29.94R
MOUNT HOLLY    CLEAR     81  68  64 SE3       29.96R
TRENTON        PTCLDY    82  70  66 SE10      29.95S

$$
NJZ001>014-180000-
NORTHERN NEW JERSEY

CITY           SKY/WX    TMP DP  RH WIND       PRES   REMARKS
SUSSEX         CLEAR     78  67  68 CALM      29.97S
ANDOVER*         N/A     77  68  73 CALM      29.97F
MORRISTOWN     PTCLDY    79  64  61 S9        29.97F
NEWARK         MOCLDY    75  66  73 SE8       29.97F
TETERBORO      CLEAR     80  61  52 S10       29.96S
CALDWELL       CLEAR     80  66  62 S6        29.97S
SOMERVILLE     CLEAR     80  68  66 VRB3      29.95S
ALLAIRE*       CLEAR     77  71  82 SE8       29.99F
TOMS RIVER*    CLEAR     81  72  74 SE5       29.98S

$$
PAZ043-044-047-054-055-060>062-066>071-180000-
EASTERN PENNSYLVANIA

CITY           SKY/WX    TMP DP  RH WIND       PRES   REMARKS
PHILADELPHIA   MOCLDY    84  66  54 S13       29.96R
NORTH PHILA    PTCLDY    84  68  58 SE8       29.97S
BLUE BELL*     CLEAR     81  68  65 S6        29.97R
DOYLESTOWN     MOCLDY    80  70  71 VRB3      29.96R
QUAKERTOWN*    PTCLDY    84  68  58 SW3       29.97S
PERKASIE*      CLOUDY    81  68  65 E6        29.97S
POTTSTOWN      CLEAR     82  67  60 S5        29.97S
LANCASTER      CLOUDY    82  74  76 S13       29.94S
COATESVILLE    MOCLDY    79  73  83 VRB5      29.99S
READING        CLOUDY    83  70  64 S9        29.93S
ALLENTOWN      PTCLDY    84  64  50 S6        29.95S
MOUNT POCONO   CLEAR     73  66  78 S6        30.02F
HAZLETON         N/A     77  66  69 SE6       30.02F
LEHIGHTON      FAIR      79  70  73 CALM      29.96S
WILKES BARRE   PTCLDY    80  66  62 VRB5      29.95F

$$
DEZALL-MDZ008-012-015-019-020-180000-
DELAWARE AND EASTERN MARYLAND

CITY           SKY/WX    TMP DP  RH WIND       PRES   REMARKS
WILMINGTON     MOCLDY    80  73  79 S13       29.96S
DOVER          PTCLDY    81  73  78 S7        29.95F
GEORGETOWN     CLOUDY    82  72  71 S9        29.98R
EASTON         MOCLDY    82  73  74 S7        30.00R
ABERDEEN       PTCLDY    79  73  83 S8        29.95F
PATUXENT       PTCLDY    82  71  69 S9        29.95S
OCEAN CITY     CLEAR     79  71  76 S6        29.99S
WALLOPS ISLAND CLOUDY    78  74  87 S10       29.99S
CAMBRIDGE      CLOUDY    82  73  74 S6G14     29.96S
SALISBURY      CLOUDY    80  72  76 S6        29.97S

$$
PAZ001-021-NYZ056-072-MDZ011-DCZ001-180000-
OTHER NEARBY LOCATIONS

CITY           SKY/WX    TMP DP  RH WIND       PRES   REMARKS
HARRISBURG     CLOUDY    83  75  77 SE10      29.91S HX  90
STATE COLLEGE  SUNNY     81  70  69 CALM      29.93F
WILLIAMSPORT   PTSUNNY   83  70  64 S13       29.88F
BINGHAMTON     MOSUNNY   74  65  73 SE6       29.95F
NEW YORK CITY  CLEAR     76  61  59 S5        30.00S
BALTIMORE      PTSUNNY   79  76  90 SE9       29.94S
WASHINGTON DC  MOSUNNY   86  75  69 S12       29.94S HX  95

$$



USA.gov is the U.S. government's official web portal to all federal, state and local government web resources and services.